Location: 3 Angels Observatory
(30.5437°N, 88.5068°W)
Time: 02:59:19
(UTC-05:00)

Oscar 19 - Visible Passes

Search period start: 28 May 2016 00:00
Search period end: 07 June 2016 00:00
Orbit: 774 x 790 km, 98.5° (Epoch: 27 May)

Date Brightness Start Highest point End Pass type
(mag) Time Alt. Az. Time Alt. Az. Time Alt. Az.
28 May 13.2 01:14:46 10° NE 01:15:29 12° ENE 01:15:29 12° ENE visible
28 May 11.7 02:52:32 10° N 02:56:02 36° NW 02:56:02 36° NW visible
29 May 11.7 02:20:32 10° NNE 02:23:54 42° NNE 02:23:54 42° NNE visible
30 May 12.4 01:49:05 10° NNE 01:51:46 27° NE 01:51:46 27° NE visible
30 May 12.4 03:29:21 10° NNW 03:32:19 19° WNW 03:32:19 19° WNW visible
31 May 13.1 01:18:29 10° NE 01:19:37 14° ENE 01:19:37 14° ENE visible
31 May 11.7 02:56:35 10° N 03:00:11 34° NW 03:00:11 34° NW visible
01 Jun 11.6 02:24:31 10° NNE 02:28:02 45° N 02:28:02 45° N visible
02 Jun 12.2 01:52:59 10° NNE 01:55:53 30° NE 01:55:53 30° NE visible
02 Jun 12.5 03:33:33 10° NNW 03:36:26 17° WNW 03:36:26 17° WNW visible
03 Jun 13.0 01:22:15 10° NE 01:23:44 15° ENE 01:23:44 15° ENE visible
03 Jun 11.8 03:00:39 10° N 03:04:17 32° NW 03:04:17 32° NW visible
04 Jun 11.5 02:28:30 10° N 02:32:08 47° N 02:32:08 47° N visible
05 Jun 12.1 01:56:55 10° NNE 01:59:59 33° NE 01:59:59 33° NE visible
05 Jun 12.5 03:37:47 10° NNW 03:40:33 16° WNW 03:40:33 16° WNW visible
06 Jun 12.9 01:26:01 10° NE 01:27:50 17° ENE 01:27:50 17° ENE visible
06 Jun 11.8 03:04:43 10° N 03:08:23 30° NW 03:08:23 30° NW visible
